Regional Weather Roundup
Issued by NWS

Home | Current Version | Previous Version | Text Only | Print | Product List | Glossary Off
Versions: 1 2 3 4 5 6 7 8 9 10 11 12 13 14 15 16 17 18 19 20 21 22 23 24 25 26 27 28 29 30 31 32 33 34 35 36 37 38 39 40 41 42 43 44 45 46 47 48 49 50

000
ASUS43 KTOP 091959
RWRKS

WEATHER ROUNDUP FOR KANSAS
NATIONAL WEATHER SERVICE GOODLAND KS
200 PM CST FRI DEC 09 2016

NOTE:  "FAIR" INDICATES FEW OR NO CLOUDS BELOW 12,000 FEET WITH NO
SIGNIFICANT WEATHER AND/OR OBSTRUCTIONS TO VISIBILITY.

KSZ001>006-013>018-027>032-041>047-092100-
NORTHWEST KANSAS

CITY           SKY/WX    TMP DP  RH WIND       PRES   REMARKS
GOODLAND       SUNNY     34  23  64 S12       30.15F WCI  25
HAYS           CLOUDY    28  12  51 S18       30.33F WCI  15
HILL CITY      MOSUNNY   31  13  47 S16       30.30F WCI  20
RUSSELL        CLOUDY    27  10  49 S21       30.34F WCI  13
$$

KSZ061>065-074>080-084>089-092100-
SOUTHWEST KANSAS

CITY           SKY/WX    TMP DP  RH WIND       PRES   REMARKS
DODGE CITY     CLOUDY    32  15  49 S20G29    30.28F WCI  20
ELKHART          N/A     41  21  44 S10         N/A
GARDEN CITY    SUNNY     37  20  50 S18G26    30.23F WCI  27
GREAT BEND     CLOUDY    27  11  51 S20       30.36F WCI  13
LIBERAL        SUNNY     39  21  48 SE17G23   30.24F WCI  30
$$

KSZ066>073-081>083-090>101-092100-
SOUTHEAST KANSAS

CITY           SKY/WX    TMP DP  RH WIND       PRES   REMARKS
CHANUTE        CLOUDY    31  12  45 S10       30.53F WCI  22
COFFEYVILLE    CLOUDY    30  13  49 S6        30.56F
HUTCHINSON     CLOUDY    27  11  51 S17       30.44F WCI  14
MEDICINE LODGE   N/A     27  10  49 SE14G21   30.41F WCI  16
NEWTON         CLOUDY    26  13  57 S14       30.45F WCI  14
PARSONS        CLOUDY    30  13  49 S6        30.56F
WICHITA INTL   CLOUDY    27  11  51 SE14      30.46F WCI  16
WICHITA JABRA  CLOUDY    27  12  53 SE13      30.46F WCI  16
WINFIELD       CLOUDY    28  12  51 SE10      30.50F WCI  19
$$

KSZ007>012-019>026-033>040-048>060-102>105-092100-
NORTHEAST KANSAS

CITY           SKY/WX    TMP DP  RH WIND       PRES   REMARKS
CONCORDIA      CLOUDY    24  13  62 S14       30.42F WCI  12
EMPORIA        CLOUDY    28  11  48 S8        30.50F
LAWRENCE       CLOUDY    27  13  55 SE10      30.55F WCI  17
MANHATTAN      CLOUDY    27  13  55 S13       30.49F WCI  16
OLATHE IND     CLOUDY    27  12  53 S8        30.54F
OLATHE EXE     CLOUDY    26  10  50 S8        30.54F
SALINA         CLOUDY    27  13  55 S15       30.46F WCI  15
TOPEKA BILLARD CLOUDY    27  12  53 SE12      30.53F WCI  17
TOPEKA FORBES  CLOUDY    28  11  48 S10       30.52F WCI  19
$$



USA.gov is the U.S. government's official web portal to all federal, state and local government web resources and services.